Location: Nebula Knoll Observatory
(43.6666°N, 71.0000°W)
Time: 15:44:45
(UTC-04:00)

Daily predictions for brighter satellites

Satellite Brightness Start Highest point End
(mag) Time Altitude Azimuth Time Altitude Azimuth Time Altitude Azimuth
USA 215 4.3 19:51:56 10° NE 19:58:11 49° NNW 20:04:25 10° W
Cosmos 614 Rocket 4.2 19:55:42 10° NNW 20:00:50 79° WSW 20:05:59 10° SSE
Resurs 1-3 3.8 19:57:29 10° SSE 20:01:46 56° ENE 20:06:05 10° N
EXPRESS MD2 2.7 19:59:32 10° WSW 20:01:54 78° NNW 20:05:44 10° ENE
Cosmos 1607 4.2 19:56:13 10° NNW 20:02:40 66° NE 20:09:05 10° SE
Cosmos 1140 Rocket 4.0 19:59:02 10° NNW 20:04:14 64° WSW 20:09:25 10° S
USA 238 DEB 4.4 19:59:54 10° NNW 20:06:35 42° NE 20:13:17 10° ESE
USA 238 4.5 20:00:00 10° NNW 20:06:41 41° NE 20:13:23 10° ESE
Okean 1 4.5 20:03:00 10° NNW 20:06:51 47° W 20:10:41 10° SSW
Cosmos 1025 Rocket 4.3 20:06:27 10° NNE 20:09:54 23° ENE 20:13:20 10° SE
Lacrosse 5 rocket 3.9 20:10:52 10° W 20:12:37 13° WSW 20:14:23 10° SSW
Cosmos 1300 Rocket 3.8 20:09:06 10° SSE 20:13:13 47° E 20:17:22 10° NNE
Meteor 2-4 Rocket 3.8 20:08:16 10° N 20:13:49 64° ENE 20:19:30 10° SSE
Cosmos 1536 3.1 20:11:34 10° SSE 20:15:29 48° E 20:19:25 10° NNE
Okean 1 Rocket 3.7 20:12:18 10° SSE 20:16:14 34° E 20:20:14 10° NNE
ATLAS 3B R/B 3.1 20:09:58 10° NNW 20:16:34 49° NE 20:22:42 11° ESE
Spot 2 Rocket 3.5 20:12:26 10° SSE 20:17:32 78° ENE 20:22:37 10° N
CZ-2D R/B 3.5 20:14:48 10° S 20:18:39 74° WSW 20:22:30 10° NNW
USA 186 1.8 20:16:24 10° SSE 20:19:45 79° E 20:23:07 10° N
Cosmos 1939 Rocket 3.3 20:16:28 10° SE 20:20:11 40° ENE 20:23:52 10° N
Tiangong 1 2.4 20:22:37 10° W 20:24:58 24° SSW 20:27:02 12° SSE
SL-8 R/B 3.9 20:22:15 10° WNW 20:27:02 70° NNE 20:31:15 13° ESE
Helios 1A 3.8 20:24:28 11° SE 20:28:04 33° ENE 20:31:55 10° N
ERS-1 Rocket 4.2 20:26:57 12° ESE 20:30:28 25° ENE 20:34:33 10° N
USA 267 3.8 20:24:44 10° SSE 20:31:07 54° SW 20:37:33 10° NW
Cosmos 1553 Rocket 4.4 20:25:52 10° NNW 20:31:57 67° W 20:37:56 10° S
S3M 4.3 20:25:46 10° NNW 20:32:02 73° W 20:38:21 10° S
NOSS 2-3 (D) 4.1 20:30:03 10° SW 20:34:45 80° NW 20:40:19 10° NE
Cosmos 2266 Rocket 3.9 20:29:19 10° S 20:35:18 69° E 20:41:19 10° NNE
Okean 1-7 Rocket 4.1 20:31:32 10° N 20:35:49 41° ENE 20:39:31 13° SE
YAOGAN 6 2.9 20:35:42 14° SE 20:38:26 44° ENE 20:41:48 10° N
CZ-4B DEB 4.5 20:37:40 11° SSE 20:41:01 67° ENE 20:44:32 10° N
Resurs 01 Rocket 2.6 20:38:19 10° S 20:42:38 49° W 20:46:59 10° NNW
Cosmos 2263 Rocket 2.7 20:40:11 10° NNW 20:45:48 61° WSW 20:51:22 10° S
Meteor 1-29 4.1 20:43:36 10° NE 20:46:25 24° E 20:47:00 23° ESE
Envisat 3.2 20:41:55 10° S 20:46:59 73° WSW 20:52:05 10° NNW
Cosmos 2315 Rocket 4.1 20:42:49 10° N 20:49:02 62° E 20:55:06 11° SSE
Abrixas 3.7 20:47:43 10° SSW 20:49:12 21° S 20:49:12 21° S
Cosmos 1844 Rocket 3.5 20:46:37 10° N 20:51:53 37° NE 20:55:09 20° ESE
Cosmos 2278 Rocket 4.0 20:49:30 10° N 20:53:19 18° NE 20:56:19 12° E
SPOT 5 4.2 20:52:35 18° E 20:54:22 22° ENE 20:57:54 10° NNE
Cosmos 2322 Rocket 3.3 20:48:53 10° SW 20:54:23 48° WNW 20:59:53 10° NNE
Lacrosse 5 2.1 20:50:34 10° SW 20:55:38 72° NW 21:00:44 10° NE
Atlas Centaur 2 4.4 20:51:38 10° WSW 20:57:39 22° SSW 21:02:22 13° SSE
ATLAS 2AS CENTAUR R/B 3.2 20:53:31 10° SW 21:01:17 81° NW 21:09:28 10° NE
CENTAUR R/B 4.4 20:56:50 10° NNW 21:03:00 26° NNE 21:09:25 11° E
Helios 1B rocket 2.4 21:00:39 10° NNE 21:04:43 57° E 21:08:10 14° S
Cosmos 2237 4.2 21:00:25 10° S 21:05:59 58° ESE 21:11:35 10° NNE
Cosmos 1515 3.6 21:02:22 10° N 21:06:11 67° E 21:08:00 29° SSE
Spot 1 4.4 21:02:30 18° SSE 21:06:17 73° ENE 21:11:16 10° N
Cosmos 1892 Rocket 4.0 21:03:01 10° N 21:07:14 41° ENE 21:08:44 30° ESE
H-2A R/B 3.1 21:06:16 22° E 21:07:54 27° ENE 21:12:00 10° N
SL-16 R/B 3.8 21:02:52 10° SW 21:08:07 38° WNW 21:13:24 10° NNE
Cosmos 1302 Rocket 4.2 21:03:07 10° S 21:08:11 49° ESE 21:13:16 10° NNE
Cosmos 2219 Rocket 3.1 21:08:26 26° ESE 21:09:20 27° ESE 21:13:59 10° NE
NOSS 3-4 (A) 4.2 21:09:42 21° SSE 21:12:26 29° ESE 21:17:48 10° NE
NOSS 3-4 (C) 4.2 21:10:15 23° SE 21:12:34 28° ESE 21:17:53 10° NE
Cosmos 1486 Rocket 4.1 21:08:01 10° NNW 21:13:14 60° ENE 21:15:43 30° SE
Cosmos 1110 Rocket 4.2 21:12:07 10° SSW 21:17:15 71° WNW 21:22:28 10° NNE
SeaSat 1 2.6 21:15:37 10° NNE 21:20:34 75° WNW 21:25:28 10° SW
Cosmos 1544 Rocket 3.9 21:20:13 37° SE 21:21:12 44° E 21:25:27 10° NNE
Cosmos 2322 3.7 21:15:38 10° SSW 21:21:18 83° WNW 21:27:01 10° NNE
Cosmos 1500 3.1 21:19:37 30° S 21:21:26 74° E 21:25:18 10° NNE
Delta 2 Rocket 4.4 21:19:01 10° WSW 21:22:31 28° S 21:22:33 28° S
SAR-Lupe-4 3.4 21:23:05 51° SE 21:23:52 74° ENE 21:27:29 10° N
Cosmos 2360 Rocket 2.6 21:19:58 10° SW 21:25:33 64° WNW 21:31:10 10° NNE
Terra 3.5 21:25:53 18° ENE 21:26:22 18° ENE 21:29:32 10° NNE
Okean 2 3.9 21:22:51 10° NNW 21:26:53 57° W 21:29:21 22° SSW
Abrixas rocket 2.2 21:23:58 10° WNW 21:27:15 70° NNE 21:27:31 65° ENE
Cosmos 405 2.8 21:27:10 55° SSE 21:27:49 74° E 21:31:25 10° NNE
Cosmos 1331 Rocket 4.4 21:23:13 10° SSW 21:28:22 65° WNW 21:33:36 10° NNE
OPS 6432 4.3 21:25:58 10° SW 21:29:32 80° NW 21:32:35 10° NE
Cosmos 482 Debris 4.1 21:27:53 10° SW 21:31:10 50° SSW 21:31:10 50° SSW
Cosmos 1455 Rocket 3.2 21:32:44 48° ESE 21:33:19 52° E 21:37:40 10° NNE
COSMOS 2428 2.6 21:28:40 10° SSW 21:34:21 71° ESE 21:40:04 10° NNE
Cosmos 1975 2.6 21:33:35 52° SSE 21:34:26 74° E 21:38:25 10° NNE
Cosmos 1844 3.8 21:31:17 10° NNW 21:36:57 62° ENE 21:38:50 41° SE
Cosmos 1241 Rocket 4.4 21:33:08 10° SSW 21:39:41 79° ESE 21:46:11 10° NE
SAR-Lupe-1 4.0 21:40:18 72° SSW 21:40:36 81° WSW 21:44:12 10° NNW
CZ-4B DEB 3.8 21:42:43 35° WSW 21:42:48 35° W 21:45:29 10° NNW
MetOp-A 4.1 21:42:58 34° S 21:45:22 80° WSW 21:50:46 10° NNW
Cosmos 724 4.2 21:39:30 10° NNW 21:45:25 72° NE 21:47:10 46° SE
Meteor 1-12 Rocket 4.1 21:42:25 27° S 21:45:34 79° E 21:51:15 10° NNE
NOAA 11 4.5 21:42:55 26° S 21:46:05 64° W 21:51:34 10° NNW
Cosmos 2333 Rocket 2.5 21:47:12 44° ESE 21:47:13 44° ESE 21:52:33 10° NE
Cosmos 1354 Rocket 4.0 21:47:23 10° NNW 21:52:43 70° ENE 21:53:45 55° SE
Cosmos 2333 4.1 21:47:09 10° SSW 21:52:48 90° ESE 21:58:27 10° NNE
NOSS 3-2 (A) 4.0 21:46:51 10° NW 21:54:24 89° NE 21:57:47 40° SE
Nadezhda 1 Rocket 4.0 21:49:57 10° N 21:56:16 69° E 21:58:07 47° SE
USA 238 DEB 4.3 21:50:54 10° NW 21:57:44 51° WSW 22:01:04 30° S
USA 238 4.3 21:51:00 10° NW 21:57:50 52° WSW 22:01:09 30° S
Cosmos 2237 Rocket 3.1 22:00:25 31° ENE 22:00:25 31° ENE 22:03:59 10° NE
Cosmos 1437 Rocket 3.2 22:01:26 55° NNE 22:01:26 55° NNE 22:04:35 10° NNE
Cosmos 1980 4.2 22:06:58 41° ENE 22:06:58 41° ENE 22:11:18 10° NE
Nimbus 7 Rocket 4.4 22:00:23 10° NNE 22:06:13 60° ESE 22:06:50 56° SE
Cosmos 1666 3.8 22:07:56 37° NNE 22:07:56 37° NNE 22:10:24 10° NNE
ATLAS 3B R/B 3.6 22:01:03 10° NW 22:07:03 36° WSW 22:09:58 25° SSW
DMSP B5D2-2 4.3 22:03:08 10° NNE 22:07:47 50° E 22:07:47 50° E
ERS-1 Rocket 3.9 22:06:57 28° SSW 22:09:00 42° W 22:13:47 10° NNW
SPOT 1/Viking Rocket 3.4 22:08:49 68° SSE 22:09:31 86° ENE 22:14:47 10° NNW
Cosmos 1818 3.9 22:04:23 10° SW 22:09:47 67° NW 22:15:14 10° NNE
Cosmos 1503 Rocket 4.0 22:07:12 10° NNW 22:12:36 80° WSW 22:13:20 66° S
ARGOS 3.6 22:12:31 40° SSW 22:14:09 55° W 22:19:27 10° NNW
Cosmos 1709 Rocket 4.2 22:15:59 49° E 22:15:59 49° E 22:21:57 10° NNE
SL-08 RB Rocket 4.0 22:15:40 56° WSW 22:16:03 58° W 22:20:31 10° NNW
Cosmos 1602 Rocket 3.9 22:13:33 10° N 22:17:09 59° NNE 22:17:09 59° NNE
H-2A R/B 3.7 22:20:29 25° NE 22:20:29 25° NE 22:23:11 10° N
Cosmos 2181 Rocket 4.4 22:14:35 10° N 22:20:47 47° ENE 22:21:06 46° E
ATLAS CENTAUR R/B 3.5 22:22:50 10° N 22:24:36 17° NNE 22:24:36 17° NNE
BREEZE-M DEB (TANK) 4.5 22:23:20 10° W 22:27:53 61° N 22:47:03 10° E
Cosmos 1743 4.0 22:29:25 39° NW 22:29:25 39° NW 22:32:25 10° N
SPOT 5 3.6 22:31:51 42° WSW 22:32:12 42° W 22:36:37 10° NNW
COSMOS 2455 3.7 22:28:14 10° NNW 22:33:48 37° NE 22:34:25 36° ENE
NOSS 3-2 (C) 4.1 22:27:19 10° NW 22:34:50 72° WSW 22:36:46 54° S
Cosmos 1844 Rocket 3.7 22:30:37 10° NW 22:35:43 35° WSW 22:36:49 33° SW
Cosmos 2278 Rocket 2.1 22:32:28 10° NNW 22:38:10 86° WSW 22:38:10 86° WSW
NOSS 0 Rocket 3.8 22:38:09 68° SSW 22:39:02 90° WNW 22:45:20 10° NNE
Lacrosse 5 4.1 22:35:17 10° WNW 22:39:22 24° NNW 22:43:28 10° NE
Cosmos 1626 Rocket 4.4 22:36:30 10° NNW 22:39:57 46° NW 22:39:57 46° NW
H-2A R/B 2.9 22:46:54 38° WSW 22:47:09 39° W 22:51:48 10° NNW
Landsat 7 4.4 22:48:56 52° WNW 22:48:56 52° WNW 22:53:01 10° NNW
Cosmos 1992 Rocket 4.2 22:49:28 65° NW 22:49:28 65° NW 22:54:31 10° NNE
Cosmos 2219 Rocket 3.0 22:50:02 25° WSW 22:53:00 47° WNW 22:58:28 10° NNE
Cosmos 968 Rocket 3.8 22:48:31 10° NNW 22:52:42 60° NNW 22:52:42 60° NNW
CENTAUR R/B 3.1 22:47:13 10° NW 22:55:04 72° NE 22:56:35 60° ESE
Meteor 2-9 Rocket 4.4 22:59:10 67° W 22:59:11 67° WNW 23:04:49 10° N
NOSS 3-4 (A) 4.0 22:56:45 10° SW 23:02:55 58° NW 23:09:22 10° NNE
NOSS 3-4 (C) 4.0 22:57:10 12° SW 23:03:01 58° NW 23:09:29 10° NNE
Terra 2.8 23:04:46 45° NW 23:04:46 45° NW 23:08:22 10° NNW
SL-16 R/B 3.5 23:11:39 31° NE 23:11:39 31° NE 23:14:39 10° NNE
Cosmos 2333 Rocket 3.8 23:29:07 22° W 23:31:37 31° NW 23:36:36 10° N
Meteor 2-5 Rocket 4.3 23:30:07 10° N 23:34:48 58° N 23:34:48 58° N
Cosmos 2074 Rocket 4.3 23:40:05 63° N 23:40:05 63° N 23:45:14 10° N
Cosmos 2184 Rocket 4.3 23:41:04 60° N 23:41:04 60° N 23:46:05 10° N
Cosmos 2237 Rocket 3.4 23:42:11 34° WNW 23:42:54 35° NW 23:48:04 10° N
Cosmos 2369 Rocket 3.7 23:38:18 10° N 23:42:42 28° NE 23:42:42 28° NE
